Time,TemperatureF,DewpointF,PressureIn,WindDirection,WindDirectionDegrees,WindSpeedMPH,WindSpeedGustMPH,Humidity,HourlyPrecipIn,Conditions,Clouds,dailyrainin,SoftwareType,DateUTC
2013-09-03 00:02:00,78.5,73.3,29.71,SW,219,0.0,2.0,84,0.00,,,0.00,WUHU216DAVISVP2,2013-09-03 04:02:00,
2013-09-03 00:07:00,78.4,73.2,29.71,SW,219,0.0,2.0,84,0.00,,,0.00,WUHU216DAVISVP2,2013-09-03 04:07:00,
2013-09-03 00:12:00,78.2,73.0,29.71,SW,219,0.0,2.0,84,0.00,,,0.00,WUHU216DAVISVP2,2013-09-03 04:12:00,
2013-09-03 00:17:00,78.1,73.2,29.71,SW,219,0.0,1.0,85,0.00,,,0.00,WUHU216DAVISVP2,2013-09-03 04:17:00,
2013-09-03 00:22:00,77.9,73.1,29.71,SW,219,0.0,1.0,85,0.00,,,0.00,WUHU216DAVISVP2,2013-09-03 04:22:00,
2013-09-03 00:27:00,77.8,73.0,29.71,SW,220,0.0,3.0,85,0.00,,,0.00,WUHU216DAVISVP2,2013-09-03 04:27:00,
2013-09-03 00:32:00,77.7,73.2,29.70,SW,220,0.0,3.0,86,0.00,,,0.00,WUHU216DAVISVP2,2013-09-03 04:32:00,
2013-09-03 00:37:00,77.6,73.1,29.70,SW,219,0.0,3.0,86,0.00,,,0.00,WUHU216DAVISVP2,2013-09-03 04:37:00,
2013-09-03 00:42:00,77.6,73.1,29.70,SW,220,0.0,3.0,86,0.00,,,0.00,WUHU216DAVISVP2,2013-09-03 04:42:00,
2013-09-03 00:47:00,77.5,73.0,29.70,SW,220,0.0,1.0,86,0.00,,,0.00,WUHU216DAVISVP2,2013-09-03 04:47:00,
2013-09-03 00:52:00,77.4,72.9,29.70,SW,219,0.0,1.0,86,0.00,,,0.00,WUHU216DAVISVP2,2013-09-03 04:52:00,
2013-09-03 00:57:00,77.3,72.8,29.69,SW,220,0.0,1.0,86,0.00,,,0.00,WUHU216DAVISVP2,2013-09-03 04:57:00,
2013-09-03 01:02:00,77.4,72.9,29.69,SW,219,0.0,1.0,86,0.00,,,0.00,WUHU216DAVISVP2,2013-09-03 05:02:00,
2013-09-03 01:07:00,77.5,73.0,29.69,SW,222,0.0,4.0,86,0.00,,,0.00,WUHU216DAVISVP2,2013-09-03 05:07:00,
2013-09-03 01:12:00,77.6,72.8,29.69,SW,222,0.0,4.0,85,0.00,,,0.00,WUHU216DAVISVP2,2013-09-03 05:12:00,
2013-09-03 01:17:00,77.8,73.0,29.68,SW,222,0.0,4.0,85,0.00,,,0.00,WUHU216DAVISVP2,2013-09-03 05:17:00,
2013-09-03 01:22:00,77.9,73.1,29.69,SW,222,0.0,4.0,85,0.00,,,0.00,WUHU216DAVISVP2,2013-09-03 05:22:00,
2013-09-03 01:27:00,78.0,73.1,29.68,SW,222,0.0,3.0,85,0.00,,,0.00,WUHU216DAVISVP2,2013-09-03 05:27:00,
2013-09-03 01:32:00,78.0,72.8,29.68,SW,222,0.0,3.0,84,0.00,,,0.00,WUHU216DAVISVP2,2013-09-03 05:32:00,
2013-09-03 01:37:00,78.0,72.8,29.68,South,184,0.0,3.0,84,0.00,,,0.00,WUHU216DAVISVP2,2013-09-03 05:37:00,
2013-09-03 01:42:00,78.1,72.9,29.68,WSW,242,0.0,3.0,84,0.00,,,0.00,WUHU216DAVISVP2,2013-09-03 05:42:00,
2013-09-03 01:47:00,78.0,72.8,29.67,WSW,242,0.0,3.0,84,0.00,,,0.00,WUHU216DAVISVP2,2013-09-03 05:47:00,
2013-09-03 01:52:00,78.0,72.8,29.67,SW,219,2.0,3.0,84,0.00,,,0.00,WUHU216DAVISVP2,2013-09-03 05:52:00,
2013-09-03 01:57:00,78.1,72.9,29.68,SW,231,1.0,4.0,84,0.00,,,0.00,WUHU216DAVISVP2,2013-09-03 05:57:00,
2013-09-03 02:02:00,78.0,72.8,29.68,SW,231,1.0,4.0,84,0.00,,,0.00,WUHU216DAVISVP2,2013-09-03 06:02:00,
2013-09-03 02:07:00,77.8,72.6,29.68,SW,231,0.0,4.0,84,0.00,,,0.00,WUHU216DAVISVP2,2013-09-03 06:07:00,
2013-09-03 02:12:00,77.6,72.7,29.68,SW,231,0.0,3.0,85,0.00,,,0.00,WUHU216DAVISVP2,2013-09-03 06:12:00,
2013-09-03 02:17:00,77.4,72.6,29.68,SW,231,0.0,2.0,85,0.00,,,0.00,WUHU216DAVISVP2,2013-09-03 06:17:00,
2013-09-03 02:22:00,77.3,72.8,29.68,SW,231,0.0,1.0,86,0.00,,,0.00,WUHU216DAVISVP2,2013-09-03 06:22:00,
2013-09-03 02:27:00,77.1,72.6,29.68,SW,231,0.0,1.0,86,0.00,,,0.00,WUHU216DAVISVP2,2013-09-03 06:27:00,
2013-09-03 02:32:00,77.0,72.5,29.69,SW,231,0.0,2.0,86,0.00,,,0.00,WUHU216DAVISVP2,2013-09-03 06:32:00,
2013-09-03 02:37:00,77.0,72.5,29.69,SW,231,0.0,2.0,86,0.00,,,0.00,WUHU216DAVISVP2,2013-09-03 06:37:00,
2013-09-03 02:42:00,76.9,72.7,29.69,SW,231,0.0,2.0,87,0.00,,,0.00,WUHU216DAVISVP2,2013-09-03 06:42:00,
2013-09-03 02:47:00,76.8,72.6,29.69,North,9,0.0,2.0,87,0.00,,,0.00,WUHU216DAVISVP2,2013-09-03 06:47:00,
2013-09-03 02:52:00,76.7,72.9,29.69,North,9,0.0,2.0,88,0.00,,,0.00,WUHU216DAVISVP2,2013-09-03 06:52:00,
2013-09-03 02:57:00,76.5,72.7,29.69,North,9,1.0,2.0,88,0.00,,,0.00,WUHU216DAVISVP2,2013-09-03 06:57:00,
2013-09-03 03:02:00,76.4,72.9,29.69,North,8,0.0,1.0,89,0.00,,,0.00,WUHU216DAVISVP2,2013-09-03 07:02:00,
2013-09-03 03:07:00,76.2,72.7,29.69,North,8,0.0,1.0,89,0.00,,,0.00,WUHU216DAVISVP2,2013-09-03 07:07:00,
2013-09-03 03:12:00,76.1,72.6,29.69,North,8,0.0,1.0,89,0.00,,,0.00,WUHU216DAVISVP2,2013-09-03 07:12:00,
2013-09-03 03:17:00,75.9,72.4,29.69,North,9,0.0,1.0,89,0.00,,,0.00,WUHU216DAVISVP2,2013-09-03 07:17:00,
2013-09-03 03:22:00,75.8,72.6,29.69,North,9,1.0,1.0,90,0.00,,,0.00,WUHU216DAVISVP2,2013-09-03 07:22:00,
2013-09-03 03:27:00,75.6,72.4,29.69,North,9,0.0,1.0,90,0.00,,,0.00,WUHU216DAVISVP2,2013-09-03 07:27:00,
2013-09-03 03:32:00,75.4,72.3,29.69,North,9,0.0,1.0,90,0.00,,,0.00,WUHU216DAVISVP2,2013-09-03 07:32:00,
2013-09-03 03:37:00,75.3,72.5,29.68,North,9,0.0,1.0,91,0.00,,,0.00,WUHU216DAVISVP2,2013-09-03 07:37:00,
2013-09-03 03:42:00,75.2,72.4,29.68,WSW,249,0.0,2.0,91,0.00,,,0.00,WUHU216DAVISVP2,2013-09-03 07:42:00,
2013-09-03 03:47:00,75.1,72.3,29.68,WSW,249,1.0,2.0,91,0.00,,,0.00,WUHU216DAVISVP2,2013-09-03 07:47:00,
2013-09-03 03:52:00,75.0,72.5,29.68,WSW,249,0.0,2.0,92,0.00,,,0.00,WUHU216DAVISVP2,2013-09-03 07:52:00,
2013-09-03 03:57:00,75.0,72.5,29.68,WSW,249,0.0,2.0,92,0.00,,,0.00,WUHU216DAVISVP2,2013-09-03 07:57:00,
2013-09-03 04:02:00,74.9,72.4,29.68,WSW,249,0.0,1.0,92,0.00,,,0.00,WUHU216DAVISVP2,2013-09-03 08:02:00,
2013-09-03 04:07:00,74.8,72.3,29.68,WSW,249,0.0,1.0,92,0.00,,,0.00,WUHU216DAVISVP2,2013-09-03 08:07:00,
2013-09-03 04:12:00,74.8,72.3,29.67,WSW,249,0.0,1.0,92,0.00,,,0.00,WUHU216DAVISVP2,2013-09-03 08:12:00,
2013-09-03 04:17:00,74.7,72.2,29.67,WSW,249,0.0,1.0,92,0.00,,,0.00,WUHU216DAVISVP2,2013-09-03 08:17:00,
2013-09-03 04:22:00,74.6,72.1,29.67,WSW,249,0.0,1.0,92,0.00,,,0.00,WUHU216DAVISVP2,2013-09-03 08:22:00,
2013-09-03 04:27:00,74.5,72.0,29.68,WSW,249,0.0,1.0,92,0.00,,,0.00,WUHU216DAVISVP2,2013-09-03 08:27:00,
2013-09-03 04:32:00,74.5,72.0,29.68,WSW,249,0.0,1.0,92,0.00,,,0.00,WUHU216DAVISVP2,2013-09-03 08:32:00,
2013-09-03 04:37:00,74.4,72.2,29.68,WSW,237,0.0,1.0,93,0.00,,,0.00,WUHU216DAVISVP2,2013-09-03 08:37:00,
2013-09-03 04:42:00,74.4,72.2,29.68,WSW,237,0.0,1.0,93,0.00,,,0.00,WUHU216DAVISVP2,2013-09-03 08:42:00,
2013-09-03 04:47:00,74.3,72.1,29.69,WSW,237,0.0,1.0,93,0.00,,,0.00,WUHU216DAVISVP2,2013-09-03 08:47:00,
2013-09-03 04:52:00,74.3,72.1,29.69,WSW,237,0.0,1.0,93,0.00,,,0.00,WUHU216DAVISVP2,2013-09-03 08:52:00,
2013-09-03 04:57:00,74.2,72.0,29.69,WSW,237,0.0,1.0,93,0.00,,,0.00,WUHU216DAVISVP2,2013-09-03 08:57:00,
2013-09-03 05:02:00,74.4,72.2,29.70,SW,226,0.0,3.0,93,0.00,,,0.00,WUHU216DAVISVP2,2013-09-03 09:02:00,
2013-09-03 05:07:00,74.4,72.2,29.70,SW,225,0.0,3.0,93,0.00,,,0.00,WUHU216DAVISVP2,2013-09-03 09:07:00,
2013-09-03 05:12:00,74.6,72.1,29.70,SW,225,1.0,3.0,92,0.00,,,0.00,WUHU216DAVISVP2,2013-09-03 09:12:00,
2013-09-03 05:17:00,74.6,72.1,29.70,NNW,330,0.0,3.0,92,0.00,,,0.00,WUHU216DAVISVP2,2013-09-03 09:17:00,
2013-09-03 05:22:00,74.7,71.9,29.70,NNW,337,0.0,4.0,91,0.00,,,0.00,WUHU216DAVISVP2,2013-09-03 09:22:00,
2013-09-03 05:27:00,74.8,71.7,29.70,SE,137,0.0,4.0,90,0.00,,,0.00,WUHU216DAVISVP2,2013-09-03 09:27:00,
2013-09-03 05:32:00,74.9,71.8,29.70,SSE,161,1.0,4.0,90,0.00,,,0.00,WUHU216DAVISVP2,2013-09-03 09:32:00,
2013-09-03 05:37:00,74.9,71.8,29.70,SSE,161,0.0,4.0,90,0.00,,,0.00,WUHU216DAVISVP2,2013-09-03 09:37:00,
2013-09-03 05:42:00,74.8,71.7,29.71,SSE,161,0.0,2.0,90,0.00,,,0.00,WUHU216DAVISVP2,2013-09-03 09:42:00,
2013-09-03 05:47:00,74.8,71.7,29.71,NNW,328,0.0,2.0,90,0.00,,,0.00,WUHU216DAVISVP2,2013-09-03 09:47:00,
2013-09-03 05:52:00,74.7,71.6,29.71,NNW,332,0.0,2.0,90,0.00,,,0.00,WUHU216DAVISVP2,2013-09-03 09:52:00,
2013-09-03 05:57:00,74.7,71.6,29.71,WNW,289,0.0,5.0,90,0.00,,,0.00,WUHU216DAVISVP2,2013-09-03 09:57:00,
2013-09-03 06:02:00,74.7,71.2,29.72,NNW,335,2.0,6.0,89,0.00,,,0.00,WUHU216DAVISVP2,2013-09-03 10:02:00,
2013-09-03 06:07:00,74.7,71.2,29.72,NW,325,0.0,6.0,89,0.00,,,0.00,WUHU216DAVISVP2,2013-09-03 10:07:00,
2013-09-03 06:12:00,74.7,71.2,29.72,NNW,335,0.0,6.0,89,0.00,,,0.00,WUHU216DAVISVP2,2013-09-03 10:12:00,
2013-09-03 06:17:00,74.6,70.8,29.72,North,4,0.0,6.0,88,0.00,,,0.00,WUHU216DAVISVP2,2013-09-03 10:17:00,
2013-09-03 06:22:00,74.6,70.8,29.72,NNW,345,3.0,6.0,88,0.00,,,0.00,WUHU216DAVISVP2,2013-09-03 10:22:00,
2013-09-03 06:27:00,74.5,70.7,29.72,NNW,328,0.0,5.0,88,0.00,,,0.00,WUHU216DAVISVP2,2013-09-03 10:27:00,
2013-09-03 06:32:00,74.4,70.6,29.73,NNW,341,3.0,5.0,88,0.00,,,0.00,WUHU216DAVISVP2,2013-09-03 10:32:00,
2013-09-03 06:37:00,74.4,70.6,29.73,WNW,299,0.0,5.0,88,0.00,,,0.00,WUHU216DAVISVP2,2013-09-03 10:37:00,
2013-09-03 06:42:00,74.4,70.6,29.74,NW,318,0.0,5.0,88,0.00,,,0.00,WUHU216DAVISVP2,2013-09-03 10:42:00,
2013-09-03 06:47:00,74.3,70.5,29.74,NW,318,0.0,5.0,88,0.00,,,0.00,WUHU216DAVISVP2,2013-09-03 10:47:00,
2013-09-03 06:52:00,74.2,70.7,29.74,NW,310,4.0,5.0,89,0.00,,,0.00,WUHU216DAVISVP2,2013-09-03 10:52:00,
2013-09-03 06:57:00,74.2,70.4,29.74,NW,304,1.0,5.0,88,0.00,,,0.00,WUHU216DAVISVP2,2013-09-03 10:57:00,
2013-09-03 07:02:00,74.2,70.4,29.74,NNW,346,2.0,5.0,88,0.00,,,0.00,WUHU216DAVISVP2,2013-09-03 11:02:00,
2013-09-03 07:07:00,74.2,70.4,29.74,NNW,346,1.0,5.0,88,0.00,,,0.00,WUHU216DAVISVP2,2013-09-03 11:07:00,
2013-09-03 07:12:00,74.3,70.5,29.74,WNW,291,0.0,4.0,88,0.00,,,0.00,WUHU216DAVISVP2,2013-09-03 11:12:00,
2013-09-03 07:17:00,74.3,70.2,29.74,North,354,2.0,4.0,87,0.00,,,0.00,WUHU216DAVISVP2,2013-09-03 11:17:00,
2013-09-03 07:22:00,74.4,70.3,29.74,WNW,303,2.0,4.0,87,0.00,,,0.00,WUHU216DAVISVP2,2013-09-03 11:22:00,
2013-09-03 07:27:00,74.5,70.4,29.75,NNW,330,1.0,4.0,87,0.00,,,0.00,WUHU216DAVISVP2,2013-09-03 11:27:00,
2013-09-03 07:32:00,74.6,70.5,29.75,NW,324,3.0,5.0,87,0.00,,,0.00,WUHU216DAVISVP2,2013-09-03 11:32:00,
2013-09-03 07:37:00,74.7,70.6,29.75,NNW,332,2.0,5.0,87,0.00,,,0.00,WUHU216DAVISVP2,2013-09-03 11:37:00,
2013-09-03 07:42:00,74.8,70.4,29.76,WNW,283,4.0,5.0,86,0.00,,,0.00,WUHU216DAVISVP2,2013-09-03 11:42:00,
2013-09-03 07:47:00,74.9,70.5,29.76,NW,305,3.0,5.0,86,0.00,,,0.00,WUHU216DAVISVP2,2013-09-03 11:47:00,
2013-09-03 07:52:00,75.0,70.5,29.76,North,354,1.0,5.0,86,0.00,,,0.00,WUHU216DAVISVP2,2013-09-03 11:52:00,
2013-09-03 07:57:00,75.2,70.4,29.76,West,280,5.0,6.0,85,0.00,,,0.00,WUHU216DAVISVP2,2013-09-03 11:57:00,
2013-09-03 08:02:00,75.3,70.2,29.77,North,359,3.0,6.0,84,0.00,,,0.00,WUHU216DAVISVP2,2013-09-03 12:02:00,
2013-09-03 08:07:00,75.4,70.3,29.77,NNW,347,1.0,6.0,84,0.00,,,0.00,WUHU216DAVISVP2,2013-09-03 12:07:00,
2013-09-03 08:12:00,75.5,70.4,29.77,North,359,2.0,6.0,84,0.00,,,0.00,WUHU216DAVISVP2,2013-09-03 12:12:00,
2013-09-03 08:17:00,75.6,70.1,29.77,NNW,346,2.0,6.0,83,0.00,,,0.00,WUHU216DAVISVP2,2013-09-03 12:17:00,
2013-09-03 08:22:00,75.7,70.2,29.77,NNW,335,1.0,6.0,83,0.00,,,0.00,WUHU216DAVISVP2,2013-09-03 12:22:00,
2013-09-03 08:27:00,75.8,70.3,29.77,NNW,331,2.0,6.0,83,0.00,,,0.00,WUHU216DAVISVP2,2013-09-03 12:27:00,
2013-09-03 08:32:00,75.8,69.9,29.77,NW,311,2.0,6.0,82,0.00,,,0.00,WUHU216DAVISVP2,2013-09-03 12:32:00,
2013-09-03 08:37:00,75.9,70.1,29.77,North,354,1.0,6.0,82,0.00,,,0.00,WUHU216DAVISVP2,2013-09-03 12:37:00,
2013-09-03 08:42:00,75.9,70.1,29.77,North,4,0.0,6.0,82,0.00,,,0.00,WUHU216DAVISVP2,2013-09-03 12:42:00,
2013-09-03 08:47:00,75.9,70.1,29.77,NNW,339,2.0,6.0,82,0.00,,,0.00,WUHU216DAVISVP2,2013-09-03 12:47:00,
2013-09-03 08:52:00,75.9,70.0,29.77,NW,312,2.0,6.0,82,0.00,,,0.00,WUHU216DAVISVP2,2013-09-03 12:52:00,
2013-09-03 08:57:00,76.0,70.2,29.78,North,4,0.0,6.0,82,0.00,,,0.00,WUHU216DAVISVP2,2013-09-03 12:57:00,
2013-09-03 09:02:00,76.1,69.9,29.78,West,269,0.0,6.0,81,0.00,,,0.00,WUHU216DAVISVP2,2013-09-03 13:02:00,
2013-09-03 09:07:00,76.1,69.6,29.78,WNW,301,3.0,7.0,80,0.00,,,0.00,WUHU216DAVISVP2,2013-09-03 13:07:00,
2013-09-03 09:12:00,76.2,69.7,29.79,North,354,0.0,7.0,80,0.00,,,0.00,WUHU216DAVISVP2,2013-09-03 13:12:00,
2013-09-03 09:17:00,76.5,69.3,29.79,North,4,3.0,7.0,78,0.00,,,0.00,WUHU216DAVISVP2,2013-09-03 13:17:00,
2013-09-03 09:22:00,76.9,69.6,29.79,North,354,2.0,7.0,78,0.00,,,0.00,WUHU216DAVISVP2,2013-09-03 13:22:00,
2013-09-03 09:27:00,77.3,69.3,29.79,North,354,1.0,7.0,76,0.00,,,0.00,WUHU216DAVISVP2,2013-09-03 13:27:00,
2013-09-03 09:32:00,77.3,68.9,29.79,NW,322,3.0,8.0,75,0.00,,,0.00,WUHU216DAVISVP2,2013-09-03 13:32:00,
2013-09-03 09:37:00,77.1,69.1,29.79,NNW,339,2.0,8.0,76,0.00,,,0.00,WUHU216DAVISVP2,2013-09-03 13:37:00,
2013-09-03 09:42:00,77.3,69.3,29.79,WNW,300,2.0,9.0,76,0.00,,,0.00,WUHU216DAVISVP2,2013-09-03 13:42:00,
2013-09-03 09:47:00,77.6,68.8,29.79,NNW,332,2.0,9.0,74,0.00,,,0.00,WUHU216DAVISVP2,2013-09-03 13:47:00,
2013-09-03 09:52:00,78.0,69.2,29.79,NW,318,7.0,9.0,74,0.00,,,0.00,WUHU216DAVISVP2,2013-09-03 13:52:00,
2013-09-03 09:57:00,78.2,68.4,29.80,NNW,337,6.0,9.0,72,0.00,,,0.00,WUHU216DAVISVP2,2013-09-03 13:57:00,
2013-09-03 10:02:00,78.1,67.9,29.80,North,11,2.0,8.0,71,0.00,,,0.00,WUHU216DAVISVP2,2013-09-03 14:02:00,
2013-09-03 10:07:00,78.3,68.7,29.80,West,278,5.0,8.0,72,0.00,,,0.00,WUHU216DAVISVP2,2013-09-03 14:07:00,
2013-09-03 10:12:00,78.4,68.2,29.80,North,4,2.0,8.0,71,0.00,,,0.00,WUHU216DAVISVP2,2013-09-03 14:12:00,
2013-09-03 10:17:00,78.4,68.2,29.80,North,349,1.0,8.0,71,0.00,,,0.00,WUHU216DAVISVP2,2013-09-03 14:17:00,
2013-09-03 10:22:00,78.4,68.6,29.80,NNW,348,3.0,8.0,72,0.00,,,0.00,WUHU216DAVISVP2,2013-09-03 14:22:00,
2013-09-03 10:27:00,78.8,67.8,29.80,WNW,301,1.0,7.0,69,0.00,,,0.00,WUHU216DAVISVP2,2013-09-03 14:27:00,
2013-09-03 10:32:00,79.4,68.3,29.79,WSW,237,2.0,7.0,69,0.00,,,0.00,WUHU216DAVISVP2,2013-09-03 14:32:00,
2013-09-03 10:37:00,80.2,66.5,29.79,NNW,346,4.0,9.0,63,0.00,,,0.00,WUHU216DAVISVP2,2013-09-03 14:37:00,
2013-09-03 10:42:00,80.2,66.9,29.79,North,4,0.0,9.0,64,0.00,,,0.00,WUHU216DAVISVP2,2013-09-03 14:42:00,
2013-09-03 10:47:00,80.5,67.9,29.80,NNW,335,4.0,9.0,65,0.00,,,0.00,WUHU216DAVISVP2,2013-09-03 14:47:00,
2013-09-03 10:52:00,80.6,66.6,29.79,NW,320,5.0,9.0,62,0.00,,,0.00,WUHU216DAVISVP2,2013-09-03 14:52:00,
2013-09-03 10:57:00,80.4,65.7,29.79,NNW,330,5.0,9.0,61,0.00,,,0.00,WUHU216DAVISVP2,2013-09-03 14:57:00,
2013-09-03 11:02:00,80.5,66.3,29.80,NNE,12,2.0,9.0,62,0.00,,,0.00,WUHU216DAVISVP2,2013-09-03 15:02:00,
2013-09-03 11:07:00,80.6,66.8,29.79,West,265,5.0,9.0,63,0.00,,,0.00,WUHU216DAVISVP2,2013-09-03 15:07:00,
2013-09-03 11:12:00,80.8,65.9,29.79,NNW,340,3.0,9.0,60,0.00,,,0.00,WUHU216DAVISVP2,2013-09-03 15:12:00,
2013-09-03 11:17:00,80.5,65.8,29.79,West,278,3.0,7.0,61,0.00,,,0.00,WUHU216DAVISVP2,2013-09-03 15:17:00,
2013-09-03 11:23:00,80.9,66.2,29.79,North,4,1.0,7.0,61,0.00,,,0.00,WUHU216DAVISVP2,2013-09-03 15:23:00,
2013-09-03 11:28:00,81.6,65.4,29.79,NW,324,3.0,7.0,58,0.00,,,0.00,WUHU216DAVISVP2,2013-09-03 15:28:00,
2013-09-03 11:33:00,81.6,65.1,29.79,West,269,2.0,7.0,57,0.00,,,0.00,WUHU216DAVISVP2,2013-09-03 15:33:00,
2013-09-03 11:38:00,81.9,64.3,29.79,North,4,2.0,7.0,55,0.00,,,0.00,WUHU216DAVISVP2,2013-09-03 15:38:00,
2013-09-03 11:43:00,82.2,63.5,29.79,WNW,294,5.0,7.0,53,0.00,,,0.00,WUHU216DAVISVP2,2013-09-03 15:43:00,
2013-09-03 11:48:00,82.5,63.6,29.79,NW,307,4.0,7.0,53,0.00,,,0.00,WUHU216DAVISVP2,2013-09-03 15:48:00,
2013-09-03 11:53:00,82.8,63.5,29.79,SSE,149,2.0,7.0,52,0.00,,,0.00,WUHU216DAVISVP2,2013-09-03 15:53:00,
2013-09-03 11:58:00,83.8,63.3,29.79,NW,320,1.0,7.0,50,0.00,,,0.00,WUHU216DAVISVP2,2013-09-03 15:58:00,
2013-09-03 12:03:00,84.3,63.8,29.79,North,349,2.0,6.0,50,0.00,,,0.00,WUHU216DAVISVP2,2013-09-03 16:03:00,
2013-09-03 12:08:00,84.4,63.9,29.79,SW,215,0.0,9.0,50,0.00,,,0.00,WUHU216DAVISVP2,2013-09-03 16:08:00,
2013-09-03 12:13:00,84.6,64.5,29.79,West,266,2.0,9.0,51,0.00,,,0.00,WUHU216DAVISVP2,2013-09-03 16:13:00,
2013-09-03 12:18:00,85.1,63.9,29.79,South,180,0.0,9.0,49,0.00,,,0.00,WUHU216DAVISVP2,2013-09-03 16:18:00,
2013-09-03 12:23:00,85.3,62.2,29.80,WNW,302,9.0,9.0,46,0.00,,,0.00,WUHU216DAVISVP2,2013-09-03 16:23:00,
2013-09-03 12:28:00,84.2,62.5,29.80,WSW,241,3.0,10.0,48,0.00,,,0.00,WUHU216DAVISVP2,2013-09-03 16:28:00,
2013-09-03 12:33:00,84.0,62.3,29.80,North,359,0.0,10.0,48,0.00,,,0.00,WUHU216DAVISVP2,2013-09-03 16:33:00,
2013-09-03 12:38:00,83.5,62.4,29.79,NNE,19,2.0,10.0,49,0.00,,,0.00,WUHU216DAVISVP2,2013-09-03 16:38:00,
2013-09-03 12:43:00,83.4,62.4,29.79,NNW,329,3.0,10.0,49,0.00,,,0.00,WUHU216DAVISVP2,2013-09-03 16:43:00,
2013-09-03 12:48:00,83.7,63.2,29.79,SSW,212,0.0,8.0,50,0.00,,,0.00,WUHU216DAVISVP2,2013-09-03 16:48:00,
2013-09-03 12:53:00,84.7,63.4,29.80,WNW,303,3.0,8.0,49,0.00,,,0.00,WUHU216DAVISVP2,2013-09-03 16:53:00,
2013-09-03 12:58:00,85.1,62.1,29.80,NW,320,9.0,9.0,46,0.00,,,0.00,WUHU216DAVISVP2,2013-09-03 16:58:00,
2013-09-03 13:03:00,84.1,61.8,29.79,North,11,7.0,9.0,47,0.00,,,0.00,WUHU216DAVISVP2,2013-09-03 17:03:00,
2013-09-03 13:08:00,83.7,62.5,29.79,NW,305,2.0,12.0,49,0.00,,,0.00,WUHU216DAVISVP2,2013-09-03 17:08:00,
2013-09-03 13:13:00,84.8,62.9,29.79,North,8,2.0,12.0,48,0.00,,,0.00,WUHU216DAVISVP2,2013-09-03 17:13:00,
2013-09-03 13:18:00,85.3,63.4,29.79,WSW,245,0.0,12.0,48,0.00,,,0.00,WUHU216DAVISVP2,2013-09-03 17:18:00,
2013-09-03 13:23:00,85.5,63.0,29.80,WNW,286,1.0,8.0,47,0.00,,,0.00,WUHU216DAVISVP2,2013-09-03 17:23:00,
2013-09-03 13:28:00,85.4,62.3,29.80,NNW,335,4.0,8.0,46,0.00,,,0.00,WUHU216DAVISVP2,2013-09-03 17:28:00,
2013-09-03 13:33:00,85.1,62.0,29.80,NW,324,4.0,9.0,46,0.00,,,0.00,WUHU216DAVISVP2,2013-09-03 17:33:00,
2013-09-03 13:38:00,83.8,61.5,29.79,NW,308,1.0,9.0,47,0.00,,,0.00,WUHU216DAVISVP2,2013-09-03 17:38:00,
2013-09-03 13:43:00,84.1,62.4,29.79,SSW,196,1.0,9.0,48,0.00,,,0.00,WUHU216DAVISVP2,2013-09-03 17:43:00,
2013-09-03 13:48:00,84.2,62.5,29.79,NNW,337,2.0,9.0,48,0.00,,,0.00,WUHU216DAVISVP2,2013-09-03 17:48:00,
2013-09-03 13:53:00,84.3,62.5,29.80,SE,141,2.0,8.0,48,0.00,,,0.00,WUHU216DAVISVP2,2013-09-03 17:53:00,
2013-09-03 13:58:00,84.7,62.3,29.80,North,10,1.0,7.0,47,0.00,,,0.00,WUHU216DAVISVP2,2013-09-03 17:58:00,
2013-09-03 14:03:00,85.2,63.4,29.80,South,188,0.0,7.0,48,0.00,,,0.00,WUHU216DAVISVP2,2013-09-03 18:03:00,
2013-09-03 14:08:00,85.5,62.4,29.79,ESE,122,2.0,5.0,46,0.00,,,0.00,WUHU216DAVISVP2,2013-09-03 18:08:00,
2013-09-03 14:13:00,85.9,62.8,29.80,South,187,0.0,5.0,46,0.00,,,0.00,WUHU216DAVISVP2,2013-09-03 18:13:00,
2013-09-03 14:18:00,86.1,62.3,29.79,NNE,20,2.0,6.0,45,0.00,,,0.00,WUHU216DAVISVP2,2013-09-03 18:18:00,
2013-09-03 14:23:00,86.3,63.2,29.79,WNW,301,3.0,6.0,46,0.00,,,0.00,WUHU216DAVISVP2,2013-09-03 18:23:00,
2013-09-03 14:28:00,84.9,63.1,29.79,WNW,291,6.0,9.0,48,0.00,,,0.00,WUHU216DAVISVP2,2013-09-03 18:28:00,
2013-09-03 14:33:00,83.9,62.8,29.79,West,269,2.0,9.0,49,0.00,,,0.00,WUHU216DAVISVP2,2013-09-03 18:33:00,
2013-09-03 14:38:00,84.1,63.6,29.79,NW,325,7.0,9.0,50,0.00,,,0.00,WUHU216DAVISVP2,2013-09-03 18:38:00,
2013-09-03 14:43:00,84.2,63.1,29.79,NNE,22,1.0,9.0,49,0.00,,,0.00,WUHU216DAVISVP2,2013-09-03 18:43:00,
2013-09-03 14:48:00,84.4,62.1,29.78,NW,309,2.0,7.0,47,0.00,,,0.00,WUHU216DAVISVP2,2013-09-03 18:48:00,
2013-09-03 14:53:00,84.3,62.0,29.78,NNW,332,2.0,7.0,47,0.00,,,0.00,WUHU216DAVISVP2,2013-09-03 18:53:00,
2013-09-03 14:58:00,84.1,61.1,29.78,North,354,7.0,9.0,46,0.00,,,0.00,WUHU216DAVISVP2,2013-09-03 18:58:00,
2013-09-03 15:03:00,84.2,61.9,29.78,NW,317,1.0,10.0,47,0.00,,,0.00,WUHU216DAVISVP2,2013-09-03 19:03:00,
2013-09-03 15:08:00,84.6,61.6,29.78,North,349,1.0,10.0,46,0.00,,,0.00,WUHU216DAVISVP2,2013-09-03 19:08:00,
2013-09-03 15:13:00,84.7,62.3,29.78,NW,319,1.0,10.0,47,0.00,,,0.00,WUHU216DAVISVP2,2013-09-03 19:13:00,
2013-09-03 15:18:00,84.5,61.5,29.78,SW,215,0.0,9.0,46,0.00,,,0.00,WUHU216DAVISVP2,2013-09-03 19:18:00,
2013-09-03 15:23:00,83.8,61.5,29.77,WNW,291,9.0,11.0,47,0.00,,,0.00,WUHU216DAVISVP2,2013-09-03 19:23:00,
2013-09-03 15:28:00,83.5,61.8,29.78,WSW,257,2.0,11.0,48,0.00,,,0.00,WUHU216DAVISVP2,2013-09-03 19:28:00,
2013-09-03 15:33:00,83.7,60.8,29.77,NNW,328,6.0,11.0,46,0.00,,,0.00,WUHU216DAVISVP2,2013-09-03 19:33:00,
2013-09-03 15:38:00,83.5,61.8,29.78,NNW,337,1.0,11.0,48,0.00,,,0.00,WUHU216DAVISVP2,2013-09-03 19:38:00,
2013-09-03 15:43:00,83.6,61.3,29.78,West,277,4.0,11.0,47,0.00,,,0.00,WUHU216DAVISVP2,2013-09-03 19:43:00,
2013-09-03 15:48:00,84.1,62.4,29.78,SW,230,2.0,11.0,48,0.00,,,0.00,WUHU216DAVISVP2,2013-09-03 19:48:00,
2013-09-03 15:53:00,84.6,62.2,29.77,SW,222,1.0,11.0,47,0.00,,,0.00,WUHU216DAVISVP2,2013-09-03 19:53:00,
2013-09-03 15:58:00,84.8,61.8,29.77,NE,43,1.0,7.0,46,0.00,,,0.00,WUHU216DAVISVP2,2013-09-03 19:58:00,
2013-09-03 16:03:00,84.9,61.9,29.77,West,264,3.0,4.0,46,0.00,,,0.00,WUHU216DAVISVP2,2013-09-03 20:03:00,
2013-09-03 16:08:00,84.7,61.1,29.77,NNE,26,1.0,5.0,45,0.00,,,0.00,WUHU216DAVISVP2,2013-09-03 20:08:00,
2013-09-03 16:13:00,84.6,61.6,29.77,WNW,286,5.0,5.0,46,0.00,,,0.00,WUHU216DAVISVP2,2013-09-03 20:13:00,
2013-09-03 16:18:00,84.5,61.5,29.77,South,173,0.0,5.0,46,0.00,,,0.00,WUHU216DAVISVP2,2013-09-03 20:18:00,
2013-09-03 16:23:00,84.3,61.3,29.77,SW,226,2.0,6.0,46,0.00,,,0.00,WUHU216DAVISVP2,2013-09-03 20:23:00,
2013-09-03 16:28:00,84.1,61.8,29.77,SSW,199,4.0,6.0,47,0.00,,,0.00,WUHU216DAVISVP2,2013-09-03 20:28:00,
2013-09-03 16:33:00,83.8,60.9,29.77,North,354,3.0,6.0,46,0.00,,,0.00,WUHU216DAVISVP2,2013-09-03 20:33:00,
2013-09-03 16:38:00,83.9,60.3,29.77,WSW,237,2.0,7.0,45,0.00,,,0.00,WUHU216DAVISVP2,2013-09-03 20:38:00,
2013-09-03 16:43:00,83.6,60.7,29.77,ENE,66,0.0,11.0,46,0.00,,,0.00,WUHU216DAVISVP2,2013-09-03 20:43:00,
2013-09-03 16:48:00,83.3,60.4,29.77,SSW,206,1.0,11.0,46,0.00,,,0.00,WUHU216DAVISVP2,2013-09-03 20:48:00,
2013-09-03 16:53:00,83.3,60.4,29.77,NNW,335,1.0,11.0,46,0.00,,,0.00,WUHU216DAVISVP2,2013-09-03 20:53:00,
2013-09-03 16:58:00,83.4,61.1,29.77,NW,322,1.0,11.0,47,0.00,,,0.00,WUHU216DAVISVP2,2013-09-03 20:58:00,
2013-09-03 17:03:00,83.6,61.3,29.77,NW,318,0.0,8.0,47,0.00,,,0.00,WUHU216DAVISVP2,2013-09-03 21:03:00,
2013-09-03 17:08:00,83.4,61.1,29.77,NNW,330,2.0,8.0,47,0.00,,,0.00,WUHU216DAVISVP2,2013-09-03 21:08:00,
2013-09-03 17:13:00,83.5,61.8,29.77,NW,326,6.0,6.0,48,0.00,,,0.00,WUHU216DAVISVP2,2013-09-03 21:13:00,
2013-09-03 17:18:00,83.5,61.8,29.77,North,354,5.0,6.0,48,0.00,,,0.00,WUHU216DAVISVP2,2013-09-03 21:18:00,
2013-09-03 17:23:00,83.3,61.0,29.78,NW,316,2.0,6.0,47,0.00,,,0.00,WUHU216DAVISVP2,2013-09-03 21:23:00,
2013-09-03 17:28:00,83.0,61.3,29.78,NNW,340,2.0,6.0,48,0.00,,,0.00,WUHU216DAVISVP2,2013-09-03 21:28:00,
2013-09-03 17:33:00,82.9,61.3,29.78,North,354,1.0,6.0,48,0.00,,,0.00,WUHU216DAVISVP2,2013-09-03 21:33:00,
2013-09-03 17:38:00,83.0,62.0,29.78,NNW,340,0.0,6.0,49,0.00,,,0.00,WUHU216DAVISVP2,2013-09-03 21:38:00,
2013-09-03 17:43:00,83.1,62.1,29.78,NNW,329,2.0,6.0,49,0.00,,,0.00,WUHU216DAVISVP2,2013-09-03 21:43:00,
2013-09-03 17:48:00,83.0,61.4,29.78,NW,316,0.0,4.0,48,0.00,,,0.00,WUHU216DAVISVP2,2013-09-03 21:48:00,
2013-09-03 17:53:00,83.0,62.0,29.78,North,359,0.0,4.0,49,0.00,,,0.00,WUHU216DAVISVP2,2013-09-03 21:53:00,
2013-09-03 17:58:00,82.9,61.9,29.79,NW,324,1.0,4.0,49,0.00,,,0.00,WUHU216DAVISVP2,2013-09-03 21:58:00,
2013-09-03 18:03:00,82.9,62.4,29.79,WSW,254,2.0,4.0,50,0.00,,,0.00,WUHU216DAVISVP2,2013-09-03 22:03:00,
2013-09-03 18:08:00,82.9,61.9,29.79,NE,44,0.0,4.0,49,0.00,,,0.00,WUHU216DAVISVP2,2013-09-03 22:08:00,
2013-09-03 18:13:00,82.8,61.8,29.79,NW,306,2.0,5.0,49,0.00,,,0.00,WUHU216DAVISVP2,2013-09-03 22:13:00,
2013-09-03 18:18:00,82.7,61.1,29.79,SW,220,0.0,5.0,48,0.00,,,0.00,WUHU216DAVISVP2,2013-09-03 22:18:00,
2013-09-03 18:23:00,82.6,60.3,29.79,WNW,299,1.0,8.0,47,0.00,,,0.00,WUHU216DAVISVP2,2013-09-03 22:23:00,
2013-09-03 18:28:00,82.4,60.2,29.79,North,359,2.0,9.0,47,0.00,,,0.00,WUHU216DAVISVP2,2013-09-03 22:28:00,
2013-09-03 18:33:00,82.3,59.5,29.79,WNW,299,0.0,9.0,46,0.00,,,0.00,WUHU216DAVISVP2,2013-09-03 22:33:00,
2013-09-03 18:38:00,82.1,59.9,29.80,WSW,249,2.0,9.0,47,0.00,,,0.00,WUHU216DAVISVP2,2013-09-03 22:38:00,
2013-09-03 18:43:00,82.0,59.9,29.80,North,354,2.0,8.0,47,0.00,,,0.00,WUHU216DAVISVP2,2013-09-03 22:43:00,
2013-09-03 18:48:00,81.8,59.7,29.80,NW,310,1.0,8.0,47,0.00,,,0.00,WUHU216DAVISVP2,2013-09-03 22:48:00,
2013-09-03 18:53:00,81.6,59.5,29.80,NW,319,3.0,8.0,47,0.00,,,0.00,WUHU216DAVISVP2,2013-09-03 22:53:00,
2013-09-03 18:58:00,81.4,59.9,29.80,NNW,328,0.0,8.0,48,0.00,,,0.00,WUHU216DAVISVP2,2013-09-03 22:58:00,
2013-09-03 19:03:00,81.2,59.7,29.80,NNE,14,4.0,8.0,48,0.00,,,0.00,WUHU216DAVISVP2,2013-09-03 23:03:00,
2013-09-03 19:08:00,81.0,59.5,29.80,WNW,291,2.0,8.0,48,0.00,,,0.00,WUHU216DAVISVP2,2013-09-03 23:08:00,
2013-09-03 19:13:00,80.9,59.5,29.80,NW,312,3.0,8.0,48,0.00,,,0.00,WUHU216DAVISVP2,2013-09-03 23:13:00,
2013-09-03 19:18:00,80.7,59.3,29.81,NW,310,2.0,7.0,48,0.00,,,0.00,WUHU216DAVISVP2,2013-09-03 23:18:00,
2013-09-03 19:23:00,80.5,59.1,29.81,North,349,2.0,7.0,48,0.00,,,0.00,WUHU216DAVISVP2,2013-09-03 23:23:00,
2013-09-03 19:28:00,80.3,58.9,29.81,NW,305,0.0,7.0,48,0.00,,,0.00,WUHU216DAVISVP2,2013-09-03 23:28:00,
2013-09-03 19:33:00,80.1,59.2,29.81,NW,322,0.0,8.0,49,0.00,,,0.00,WUHU216DAVISVP2,2013-09-03 23:33:00,
2013-09-03 19:38:00,79.9,59.0,29.81,North,354,2.0,8.0,49,0.00,,,0.00,WUHU216DAVISVP2,2013-09-03 23:38:00,
2013-09-03 19:43:00,79.7,58.9,29.81,NW,315,2.0,8.0,49,0.00,,,0.00,WUHU216DAVISVP2,2013-09-03 23:43:00,
2013-09-03 19:48:00,79.4,59.2,29.82,NNW,327,0.0,8.0,50,0.00,,,0.00,WUHU216DAVISVP2,2013-09-03 23:48:00,
2013-09-03 19:53:00,79.1,59.5,29.82,NNW,332,0.0,6.0,51,0.00,,,0.00,WUHU216DAVISVP2,2013-09-03 23:53:00,
2013-09-03 19:58:00,78.9,59.9,29.82,NNW,328,0.0,6.0,52,0.00,,,0.00,WUHU216DAVISVP2,2013-09-03 23:58:00,
2013-09-03 20:03:00,78.7,60.3,29.82,NW,314,0.0,6.0,53,0.00,,,0.00,WUHU216DAVISVP2,2013-09-04 00:03:00,
2013-09-03 20:08:00,78.4,60.0,29.82,NW,320,0.0,5.0,53,0.00,,,0.00,WUHU216DAVISVP2,2013-09-04 00:08:00,
2013-09-03 20:13:00,78.2,59.8,29.83,NW,314,1.0,6.0,53,0.00,,,0.00,WUHU216DAVISVP2,2013-09-04 00:13:00,
2013-09-03 20:18:00,78.0,60.0,29.83,WNW,303,0.0,6.0,54,0.00,,,0.00,WUHU216DAVISVP2,2013-09-04 00:18:00,
2013-09-03 20:23:00,77.6,60.2,29.83,NNW,346,1.0,6.0,55,0.00,,,0.00,WUHU216DAVISVP2,2013-09-04 00:23:00,
2013-09-03 20:28:00,77.4,60.1,29.83,NW,308,2.0,6.0,55,0.00,,,0.00,WUHU216DAVISVP2,2013-09-04 00:28:00,
2013-09-03 20:33:00,77.2,60.0,29.83,NW,314,1.0,6.0,55,0.00,,,0.00,WUHU216DAVISVP2,2013-09-04 00:33:00,
2013-09-03 20:38:00,77.0,59.6,29.84,North,11,1.0,6.0,55,0.00,,,0.00,WUHU216DAVISVP2,2013-09-04 00:38:00,
2013-09-03 20:43:00,76.8,59.9,29.84,NW,307,3.0,6.0,56,0.00,,,0.00,WUHU216DAVISVP2,2013-09-04 00:43:00,
2013-09-03 20:48:00,76.6,59.7,29.84,NW,305,0.0,6.0,56,0.00,,,0.00,WUHU216DAVISVP2,2013-09-04 00:48:00,
2013-09-03 20:53:00,76.5,59.6,29.84,NW,326,0.0,4.0,56,0.00,,,0.00,WUHU216DAVISVP2,2013-09-04 00:53:00,
2013-09-03 20:58:00,76.4,60.2,29.85,North,349,1.0,4.0,57,0.00,,,0.00,WUHU216DAVISVP2,2013-09-04 00:58:00,
2013-09-03 21:03:00,76.2,60.0,29.85,WNW,299,0.0,5.0,57,0.00,,,0.00,WUHU216DAVISVP2,2013-09-04 01:03:00,
2013-09-03 21:08:00,76.0,59.7,29.85,NE,50,1.0,5.0,57,0.00,,,0.00,WUHU216DAVISVP2,2013-09-04 01:08:00,
2013-09-03 21:13:00,75.9,59.8,29.85,North,359,3.0,6.0,57,0.00,,,0.00,WUHU216DAVISVP2,2013-09-04 01:13:00,
2013-09-03 21:18:00,75.8,59.7,29.86,NW,317,1.0,6.0,57,0.00,,,0.00,WUHU216DAVISVP2,2013-09-04 01:18:00,
2013-09-03 21:23:00,75.7,58.9,29.86,North,8,3.0,6.0,56,0.00,,,0.00,WUHU216DAVISVP2,2013-09-04 01:23:00,
2013-09-03 21:28:00,75.7,58.6,29.86,NNE,18,3.0,8.0,55,0.00,,,0.00,WUHU216DAVISVP2,2013-09-04 01:28:00,
2013-09-03 21:33:00,75.8,59.2,29.87,NNE,16,1.0,8.0,56,0.00,,,0.00,WUHU216DAVISVP2,2013-09-04 01:33:00,
2013-09-03 21:38:00,75.6,59.0,29.87,NNE,19,4.0,8.0,56,0.00,,,0.00,WUHU216DAVISVP2,2013-09-04 01:38:00,
2013-09-03 21:43:00,75.3,58.7,29.87,NNW,339,2.0,8.0,56,0.00,,,0.00,WUHU216DAVISVP2,2013-09-04 01:43:00,
2013-09-03 21:48:00,75.2,58.6,29.87,North,354,3.0,6.0,56,0.00,,,0.00,WUHU216DAVISVP2,2013-09-04 01:48:00,
2013-09-03 21:53:00,74.9,58.8,29.88,NW,316,4.0,6.0,57,0.00,,,0.00,WUHU216DAVISVP2,2013-09-04 01:53:00,
2013-09-03 21:58:00,74.8,58.7,29.88,NNW,327,2.0,7.0,57,0.00,,,0.00,WUHU216DAVISVP2,2013-09-04 01:58:00,
2013-09-03 22:03:00,74.6,58.5,29.88,NNW,334,2.0,7.0,57,0.00,,,0.00,WUHU216DAVISVP2,2013-09-04 02:03:00,
2013-09-03 22:08:00,74.5,58.9,29.88,North,10,3.0,7.0,58,0.00,,,0.00,WUHU216DAVISVP2,2013-09-04 02:08:00,
2013-09-03 22:13:00,74.3,58.8,29.88,NW,318,2.0,7.0,58,0.00,,,0.00,WUHU216DAVISVP2,2013-09-04 02:13:00,
2013-09-03 22:18:00,74.1,59.0,29.88,NNW,337,3.0,7.0,59,0.00,,,0.00,WUHU216DAVISVP2,2013-09-04 02:18:00,
2013-09-03 22:23:00,73.9,59.1,29.88,NNW,339,1.0,7.0,60,0.00,,,0.00,WUHU216DAVISVP2,2013-09-04 02:23:00,
2013-09-03 22:28:00,73.7,59.1,29.89,NW,305,2.0,7.0,60,0.00,,,0.00,WUHU216DAVISVP2,2013-09-04 02:28:00,
2013-09-03 22:33:00,73.5,59.0,29.89,NNW,344,0.0,8.0,60,0.00,,,0.00,WUHU216DAVISVP2,2013-09-04 02:33:00,
2013-09-03 22:38:00,73.2,58.7,29.89,NW,311,1.0,8.0,60,0.00,,,0.00,WUHU216DAVISVP2,2013-09-04 02:38:00,
2013-09-03 22:43:00,73.0,59.0,29.89,NNW,330,2.0,8.0,61,0.00,,,0.00,WUHU216DAVISVP2,2013-09-04 02:43:00,
2013-09-03 22:48:00,72.8,59.2,29.89,NNW,338,1.0,8.0,62,0.00,,,0.00,WUHU216DAVISVP2,2013-09-04 02:48:00,
2013-09-03 22:53:00,72.6,58.8,29.89,NNW,341,1.0,4.0,62,0.00,,,0.00,WUHU216DAVISVP2,2013-09-04 02:53:00,
2013-09-03 22:58:00,72.5,59.2,29.89,NW,319,1.0,4.0,63,0.00,,,0.00,WUHU216DAVISVP2,2013-09-04 02:58:00,
2013-09-03 23:03:00,72.4,58.6,29.89,NNW,343,2.0,5.0,62,0.00,,,0.00,WUHU216DAVISVP2,2013-09-04 03:03:00,
2013-09-03 23:08:00,72.3,59.0,29.90,NNW,338,3.0,5.0,63,0.00,,,0.00,WUHU216DAVISVP2,2013-09-04 03:08:00,
2013-09-03 23:13:00,72.1,59.0,29.90,NW,314,0.0,5.0,63,0.00,,,0.00,WUHU216DAVISVP2,2013-09-04 03:13:00,
2013-09-03 23:18:00,71.9,59.3,29.90,North,359,2.0,5.0,64,0.00,,,0.00,WUHU216DAVISVP2,2013-09-04 03:18:00,
2013-09-03 23:23:00,71.8,58.7,29.90,NNW,333,2.0,5.0,63,0.00,,,0.00,WUHU216DAVISVP2,2013-09-04 03:23:00,
2013-09-03 23:28:00,71.7,59.1,29.90,East,89,2.0,5.0,64,0.00,,,0.00,WUHU216DAVISVP2,2013-09-04 03:28:00,
2013-09-03 23:33:00,71.7,58.9,29.91,NNW,334,1.0,8.0,64,0.00,,,0.00,WUHU216DAVISVP2,2013-09-04 03:33:00,
2013-09-03 23:38:00,71.6,58.8,29.91,NNW,339,1.0,8.0,64,0.00,,,0.00,WUHU216DAVISVP2,2013-09-04 03:38:00,
2013-09-03 23:43:00,71.4,58.3,29.91,NE,35,2.0,8.0,63,0.00,,,0.00,WUHU216DAVISVP2,2013-09-04 03:43:00,
2013-09-03 23:49:00,71.3,58.1,29.91,North,9,3.0,7.0,63,0.00,,,0.00,WUHU216DAVISVP2,2013-09-04 03:49:00,
2013-09-03 23:54:00,71.2,58.2,29.91,NW,317,3.0,9.0,63,0.00,,,0.00,WUHU216DAVISVP2,2013-09-04 03:54:00,
2013-09-03 23:59:00,71.0,58.4,29.91,North,349,2.0,9.0,64,0.00,,,0.00,WUHU216DAVISVP2,2013-09-04 03:59:00,